GW7284 Weather Reports


time (UTC)temp
C
wind
direction
speed
KPH
gust
KPH
rain 1hr
cm
rain 24hr
cm
rain mn
cm
humidity
%
barometer
mb
20260510213837 21 49 0.0 1.6 0.00 0.05 0.05 39 997.7
20260510213333 21 326 1.6 1.6 0.00 0.05 0.05 43 997.6
20260510212830 21 323 1.6 1.6 0.00 0.05 0.05 46 997.6
20260510212327 21 323 0.0 0.0 0.00 0.05 0.05 44 997.7
20260510211824 21 320 1.6 1.6 0.00 0.05 0.05 37 997.8
20260510211320 21 244 3.2 3.2 0.00 0.05 0.05 34 997.8
20260510210815 21 268 3.2 3.2 0.00 0.05 0.05 36 997.9
20260510210310 20 30 0.0 0.0 0.00 0.05 0.05 42 997.8
20260510205810 20 30 0.0 1.6 0.00 0.05 0.05 41 997.9
20260510205306 20 252 0.0 1.6 0.00 0.05 0.05 34 998.1
20260510204801 20 31 1.6 1.6 0.00 0.05 0.05 38 998.3
20260510204258 20 22 3.2 4.8 0.00 0.05 0.05 34 998.3
20260510203755 20 261 0.0 1.6 0.00 0.05 0.05 42 998.3
20260510203253 20 221 1.6 3.2 0.00 0.05 0.05 35 998.1
20260510202752 20 31 0.0 1.6 0.00 0.05 0.05 37 998.0
20260510202248 20 259 0.0 3.2 0.00 0.05 0.05 41 998.2
20260510201745 20 19 0.0 4.8 0.00 0.05 0.05 36 998.1
20260510201242 21 277 4.8 4.8 0.00 0.05 0.05 34 998.1
20260510200738 21 316 0.0 3.2 0.00 0.05 0.05 43 998.0
20260510200236 21 275 1.6 3.2 0.00 0.05 0.05 36 997.9
20260510195733 21 269 3.2 4.8 0.00 0.05 0.05 33 998.2
20260510195230 21 239 0.0 4.8 0.00 0.05 0.05 34 997.9
20260510194729 20 10 1.6 3.2 0.00 0.05 0.05 33 998.3
20260510194226 20 32 1.6 1.6 0.00 0.05 0.05 34 998.0
20260510193721 21 28 4.8 6.4 0.00 0.05 0.05 34 998.1
20260510193216 21 222 0.0 4.8 0.00 0.05 0.05 35 998.0
20260510192712 21 259 1.6 3.2 0.00 0.05 0.05 35 998.3
20260510192208 21 208 3.2 3.2 0.00 0.05 0.05 33 998.2
20260510191704 20 32 3.2 6.4 0.00 0.05 0.05 35 998.3
20260510191201 20 24 8.0 9.7 0.00 0.05 0.05 37 998.2
20260510190658 20 341 1.6 3.2 0.00 0.05 0.05 43 998.2
20260510190155 20 86 3.2 3.2 0.00 0.05 0.05 40 998.1
20260510185652 18 34 0.0 1.6 0.00 0.05 0.05 43 998.2
20260510185150 18 26 1.6 6.4 0.00 0.05 0.05 38 998.0
20260510184646 17 28 0.0 0.0 0.00 0.05 0.05 47 998.0
20260510184142 18 29 1.6 4.8 0.00 0.05 0.05 39 997.9
20260510183638 18 16 0.0 3.2 0.00 0.05 0.05 39 998.1
20260510183133 18 79 0.0 1.6 0.00 0.05 0.05 44 997.9
20260510182630 19 114 1.6 3.2 0.00 0.05 0.05 43 997.8
20260510182125 19 289 1.6 4.8 0.00 0.05 0.05 47 997.9
20260510181623 20 47 3.2 14.5 0.00 0.05 0.05 45 998.0
20260510181119 20 25 1.6 3.2 0.00 0.05 0.05 45 998.0
20260510180615 19 273 3.2 4.8 0.00 0.05 0.05 44 997.9
20260510180113 18 292 1.6 3.2 0.00 0.05 0.05 47 997.7
20260510175609 18 317 1.6 9.7 0.00 0.05 0.05 47 997.6
20260510175104 18 320 1.6 4.8 0.00 0.05 0.05 49 997.9
20260510174603 18 349 1.6 6.4 0.00 0.05 0.05 48 998.0
20260510174100 18 335 1.6 4.8 0.00 0.05 0.05 54 997.9
20260510173555 18 342 1.6 3.2 0.00 0.05 0.05 46 998.2
20260510173052 18 280 4.8 4.8 0.00 0.05 0.05 44 998.2
20260510172548 18 274 3.2 3.2 0.00 0.05 0.05 46 998.3
20260510172044 17 346 0.0 1.6 0.00 0.05 0.05 43 998.3
20260510171540 18 259 1.6 9.7 0.00 0.05 0.05 47 998.2
20260510171038 18 331 1.6 1.6 0.00 0.05 0.05 43 998.4
20260510170534 18 309 3.2 4.8 0.00 0.05 0.05 43 998.2
20260510170031 18 349 1.6 4.8 0.00 0.05 0.05 45 998.3
20260510165526 18 232 0.0 1.6 0.00 0.05 0.05 50 998.2
20260510165023 18 309 3.2 4.8 0.00 0.05 0.05 44 998.1
20260510164520 17 32 3.2 3.2 0.00 0.05 0.05 49 998.4
20260510164016 17 245 1.6 3.2 0.00 0.05 0.05 44 998.3
20260510163512 17 36 1.6 4.8 0.00 0.05 0.05 50 998.2
20260510163008 17 342 1.6 3.2 0.00 0.05 0.05 50 998.4
20260510162504 17 351 1.6 1.6 0.00 0.05 0.05 53 998.1
20260510162000 16 314 1.6 4.8 0.00 0.05 0.05 54 998.2
20260510161456 16 310 1.6 1.6 0.00 0.05 0.05 51 998.2
20260510160954 16 341 1.6 1.6 0.00 0.05 0.05 52 998.4
20260510160451 17 270 1.6 3.2 0.00 0.05 0.05 50 998.3
20260510155949 17 349 1.6 1.6 0.00 0.05 0.05 56 998.5
20260510155446 17 3 0.0 4.8 0.00 0.05 0.05 57 998.4
20260510154943 16 14 1.6 3.2 0.00 0.05 0.05 54 998.7
20260510154439 16 74 1.6 1.6 0.00 0.05 0.05 55 998.5
20260510153937 16 46 3.2 4.8 0.00 0.05 0.05 50 998.5
20260510153434 16 68 1.6 4.8 0.00 0.05 0.05 50 998.3
20260510152931 16 253 6.4 9.7 0.00 0.05 0.05 51 998.2
20260510152429 16 359 0.0 3.2 0.00 0.05 0.05 57 998.2
20260510151925 16 332 1.6 3.2 0.00 0.05 0.05 52 998.0
20260510151422 16 344 1.6 1.6 0.00 0.05 0.05 57 998.1
20260510150918 16 16 1.6 1.6 0.00 0.05 0.05 56 997.8
20260510150414 16 343 1.6 4.8 0.00 0.05 0.05 52 998.0
20260510145910 16 43 3.2 6.4 0.00 0.05 0.05 53 997.7
20260510145407 16 18 1.6 3.2 0.00 0.05 0.05 57 997.9
20260510144903 16 42 3.2 3.2 0.00 0.05 0.05 60 997.6
20260510144355 16 357 0.0 1.6 0.00 0.05 0.05 58 997.7
20260510143855 15 341 0.0 3.2 0.00 0.05 0.05 65 997.6
20260510143351 15 15 0.0 4.8 0.00 0.05 0.05 56 997.2
20260510142848 15 288 4.8 6.4 0.00 0.05 0.05 56 997.6
20260510142345 14 77 1.6 6.4 0.00 0.05 0.05 58 997.5
20260510141841 14 4 0.0 0.0 0.00 0.05 0.05 62 997.2
20260510141339 14 357 1.6 3.2 0.00 0.05 0.05 58 997.4
20260510140836 14 20 0.0 1.6 0.00 0.05 0.05 63 997.1
20260510140332 13 4 1.6 3.2 0.00 0.05 0.05 62 997.1
20260510135831 13 268 1.6 3.2 0.00 0.05 0.05 66 996.8
20260510135327 13 283 0.0 4.8 0.00 0.05 0.05 65 996.6
20260510134825 13 277 0.0 3.2 0.00 0.05 0.05 64 996.6
20260510134322 13 290 0.0 1.6 0.00 0.05 0.05 66 996.9
20260510133817 13 254 1.6 3.2 0.00 0.05 0.05 66 996.9
20260510133314 13 289 0.0 0.0 0.00 0.05 0.05 71 996.8
20260510132809 12 319 0.0 3.2 0.00 0.05 0.05 69 997.2
20260510132308 12 334 0.0 0.0 0.00 0.05 0.05 69 996.7
20260510131804 12 315 0.0 0.0 0.00 0.05 0.05 73 996.6
20260510131302 12 323 0.0 1.6 0.00 0.05 0.05 71 996.6
20260510130758 12 50 0.0 1.6 0.00 0.05 0.05 72 996.6
20260510130255 12 56 0.0 1.6 0.00 0.05 0.05 74 996.4
20260510125752 12 25 0.0 0.0 0.00 0.05 0.05 73 996.6
20260510125248 12 339 1.6 1.6 0.00 0.05 0.05 72 996.7
20260510124745 12 44 1.6 3.2 0.00 0.05 0.05 72 996.8
20260510124242 12 16 1.6 4.8 0.00 0.05 0.05 73 996.5
20260510123737 12 6 1.6 1.6 0.00 0.05 0.05 78 996.2
20260510123234 12 359 0.0 3.2 0.00 0.05 0.05 81 996.3
20260510122730 12 357 1.6 1.6 0.00 0.05 0.05 78 996.2
20260510122226 12 358 1.6 1.6 0.00 0.05 0.05 78 996.1
20260510121722 11 330 1.6 3.2 0.00 0.05 0.05 78 995.9
20260510121220 11 359 0.0 1.6 0.00 0.05 0.05 81 995.9
20260510120717 11 298 1.6 3.2 0.00 0.05 0.05 78 995.6
20260510120214 12 12 1.6 1.6 0.00 0.05 0.05 80 995.4
20260510115709 11 345 0.0 0.0 0.00 0.05 0.05 81 995.2
20260510115208 11 344 1.6 1.6 0.00 0.05 0.05 80 995.5
20260510114703 11 317 0.0 0.0 0.00 0.05 0.05 82 995.4
20260510114200 11 349 1.6 1.6 0.00 0.05 0.05 82 995.3
20260510113655 11 334 0.0 1.6 0.00 0.05 0.05 82 995.3
20260510113152 12 333 0.0 1.6 0.00 0.05 0.05 82 995.1
20260510112649 12 15 4.8 11.3 0.00 0.05 0.05 81 994.7
20260510112146 12 23 0.0 3.2 0.00 0.05 0.05 83 994.9
20260510111642 12 346 0.0 3.2 0.00 0.05 0.05 82 994.7
20260510111138 12 344 0.0 1.6 0.00 0.05 0.05 84 994.5
20260510110633 12 348 1.6 3.2 0.00 0.05 0.05 84 994.3
20260510110131 12 338 1.6 1.6 0.00 0.05 0.05 85 994.3
20260510105627 12 335 0.0 1.6 0.00 0.05 0.05 84 994.4
20260510105126 12 314 1.6 6.4 0.00 0.05 0.05 85 994.1
20260510104624 12 1 0.0 0.0 0.00 0.05 0.05 87 993.8
20260510104120 12 358 0.0 0.0 0.00 0.05 0.05 87 993.9
20260510103617 12 359 0.0 1.6 0.00 0.05 0.05 86 993.8
20260510103113 12 20 1.6 3.2 0.00 0.05 0.05 89 993.7
20260510102609 12 347 0.0 0.0 0.00 0.05 0.05 90 993.6
20260510102105 12 334 0.0 1.6 0.00 0.05 0.05 91 993.6
20260510101603 12 334 0.0 1.6 0.00 0.05 0.05 91 993.4
20260510101101 12 352 0.0 1.6 0.00 0.05 0.05 91 993.3
20260510100556 12 347 0.0 0.0 0.00 0.05 0.05 91 993.2
20260510100054 12 344 0.0 0.0 0.00 0.05 0.05 92 993.5
20260510095550 12 343 0.0 1.6 0.00 0.05 0.05 93 993.3
20260510095049 13 17 0.0 0.0 0.00 0.05 0.05 95 992.9
20260510094544 13 16 1.6 1.6 0.00 0.05 0.05 95 993.2
20260510094040 13 24 1.6 1.6 0.00 0.05 0.05 96 993.0
20260510093536 13 338 0.0 0.0 0.00 0.05 0.05 96 993.1
20260510093033 13 337 0.0 0.0 0.00 0.05 0.05 96 992.9
20260510092530 13 337 0.0 0.0 0.00 0.05 0.05 96 993.0
20260510092029 13 338 0.0 0.0 0.00 0.05 0.05 96 992.8
20260510091526 13 337 0.0 0.0 0.00 0.05 0.05 96 992.8
20260510091022 13 337 0.0 0.0 0.00 0.05 0.05 96 992.9
20260510090520 13 337 1.6 1.6 0.00 0.05 0.05 96 993.0
20260510090015 13 278 0.0 0.0 0.00 0.05 0.05 96 992.9
20260510085510 13 278 0.0 0.0 0.00 0.05 0.05 96 992.9
20260510085006 13 278 0.0 0.0 0.00 0.05 0.05 96 992.7
20260510084503 13 278 0.0 0.0 0.00 0.05 0.05 96 992.7
20260510083959 13 278 0.0 0.0 0.00 0.05 0.05 96 992.4
20260510083457 13 278 0.0 0.0 0.00 0.05 0.05 96 992.6
20260510082957 13 278 0.0 0.0 0.00 0.05 0.05 96 992.7
20260510082455 13 278 0.0 0.0 0.00 0.05 0.05 96 992.3
20260510081954 13 278 0.0 0.0 0.00 0.05 0.05 96 992.0
20260510081450 13 278 0.0 0.0 0.00 0.05 0.05 95 992.1
20260510080947 13 278 0.0 0.0 0.00 0.05 0.05 95 992.1
20260510080445 13 278 0.0 0.0 0.00 0.05 0.05 95 992.0
20260510075942 13 278 0.0 0.0 0.00 0.05 0.05 95 992.0
20260510075440 14 278 0.0 0.0 0.00 0.05 0.05 95 991.8
20260510074937 14 278 0.0 0.0 0.00 0.05 0.05 95 991.7
20260510074434 14 278 0.0 0.0 0.00 0.05 0.05 95 991.4
20260510073930 14 278 0.0 0.0 0.00 0.05 0.05 94 991.7
20260510073425 14 278 0.0 0.0 0.00 0.05 0.05 95 991.6
20260510072922 14 278 0.0 0.0 0.00 0.05 0.05 95 991.5
20260510072419 14 278 0.0 0.0 0.00 0.05 0.05 94 991.4
20260510071914 14 278 0.0 0.0 0.00 0.05 0.05 94 991.4
20260510071411 14 278 0.0 0.0 0.00 0.05 0.05 94 991.4
20260510070910 14 278 0.0 0.0 0.00 0.05 0.05 94 991.3
20260510070407 14 278 0.0 0.0 0.00 0.05 0.05 94 991.5
20260510065902 14 278 0.0 0.0 0.00 0.05 0.05 94 991.2
20260510065358 15 278 0.0 0.0 0.00 0.05 0.05 94 991.1
20260510064855 15 277 0.0 0.0 0.00 0.05 0.05 94 991.2
20260510064353 15 277 0.0 0.0 0.00 0.05 0.05 94 991.3
20260510063849 15 277 0.0 0.0 0.00 0.05 0.05 94 991.3
20260510063346 15 277 0.0 0.0 0.00 0.05 0.05 93 991.4
20260510062843 15 277 0.0 0.0 0.00 0.05 0.05 93 991.4
20260510062338 15 294 0.0 0.0 0.00 0.05 0.05 93 991.0
20260510061833 15 295 1.6 3.2 0.00 0.05 0.05 94 991.0
20260510061330 15 304 0.0 3.2 0.00 0.05 0.05 94 990.7
20260510060826 15 341 0.0 0.0 0.00 0.05 0.05 94 990.7
20260510060324 15 336 1.6 3.2 0.00 0.05 0.05 94 990.7
20260510055820 15 351 3.2 3.2 0.00 0.05 0.05 94 991.0
20260510055319 15 338 1.6 3.2 0.00 0.05 0.05 94 990.7
20260510054819 15 30 1.6 3.2 0.00 0.05 0.05 94 990.9
20260510054315 15 45 1.6 3.2 0.00 0.05 0.05 94 990.9
20260510053810 15 31 1.6 1.6 0.00 0.05 0.05 94 990.7
20260510053305 15 40 1.6 4.8 0.00 0.05 0.05 93 990.6
20260510052802 15 96 1.6 4.8 0.00 0.05 0.05 93 991.1
20260510052258 15 5 0.0 1.6 0.00 0.05 0.05 93 991.0
20260510051754 15 355 1.6 1.6 0.00 0.05 0.05 92 990.3
20260510051251 15 49 1.6 1.6 0.00 0.05 0.05 93 990.1
20260510050748 15 53 0.0 0.0 0.23 0.05 0.05 92 989.7
20260510050245 16 64 0.0 0.0 0.66 0.05 0.05 91 989.1
20260510045741 16 63 0.0 0.0 0.43 0.36 0.36 90 989.6
20260510045238 15 52 0.0 3.2 0.18 0.28 0.28 93 989.9
20260510044735 15 191 0.0 0.0 0.18 0.28 0.28 94 990.0
20260510044233 15 191 0.0 0.0 0.23 0.25 0.25 93 990.1
20260510043727 16 192 0.0 0.0 0.00 0.20 0.20 93 989.9
20260510043225 16 192 0.0 0.0 0.18 0.20 0.20 93 990.2
20260510042722 16 131 3.2 3.2 0.18 0.20 0.20 92 990.1
20260510042218 16 29 0.0 0.0 0.23 0.18 0.18 91 990.2
20260510041715 16 28 1.6 1.6 0.66 0.18 0.18 91 990.3
20260510041212 16 34 3.2 3.2 0.23 0.10 0.10 89 990.8
20260510040709 16 1 0.0 1.6 0.18 0.08 0.08 90 990.2
20260510040206 16 4 0.0 1.6 0.18 0.08 0.08 89 990.2
20260510035701 16 358 3.2 3.2 0.00 0.05 0.05 88 990.2
20260510035157 16 5 1.6 1.6 0.00 0.05 0.05 88 990.2
20260510034653 16 12 4.8 6.4 0.00 0.05 0.05 87 990.2
20260510034151 16 293 3.2 4.8 0.00 0.05 0.05 87 989.5
20260510033647 16 14 1.6 3.2 0.00 0.05 0.05 87 989.6
20260510033145 16 11 1.6 9.7 0.23 0.05 0.05 86 989.8
20260510032641 17 68 3.2 12.9 0.23 0.05 0.05 85 989.8
20260510032136 17 348 3.2 11.3 0.00 0.00 0.00 85 989.7
20260510031632 17 14 4.8 6.4 0.00 0.00 0.00 84 989.9
20260510031129 17 13 3.2 12.9 0.00 0.00 0.00 81 990.0
20260510030628 17 43 4.8 9.7 0.00 0.00 0.00 79 989.7
20260510030126 18 38 9.7 17.7 0.00 0.00 0.00 76 989.8
20260510025623 18 353 4.8 14.5 0.00 0.00 0.00 73 989.9
20260510025121 19 8 11.3 22.5 0.00 0.00 0.00 67 990.2
20260510024617 20 45 9.7 20.9 0.00 0.00 0.00 61 989.6
20260510024114 20 6 0.0 0.0 0.00 0.00 0.00 55 987.8
20260510023610 21 6 0.0 0.0 0.00 0.00 0.00 54 987.8
20260510023108 21 6 0.0 0.0 0.00 0.00 0.00 53 987.3
20260510022607 21 6 0.0 0.0 0.00 0.00 0.00 54 987.4
20260510022102 21 6 0.0 0.0 0.00 0.00 0.00 54 987.2
20260510021558 21 6 0.0 0.0 0.00 0.00 0.00 53 987.2
20260510021056 21 6 0.0 0.0 0.00 0.00 0.00 52 987.1
20260510020555 21 6 0.0 0.0 0.00 0.00 0.00 51 987.2
20260510020051 21 6 0.0 0.0 0.00 0.00 0.00 52 987.2
20260510015547 21 6 0.0 0.0 0.00 0.00 0.00 52 987.1
20260510015044 21 6 0.0 0.0 0.00 0.00 0.00 52 987.0
20260510014540 21 6 0.0 0.0 0.00 0.00 0.00 51 986.8
20260510014038 21 6 0.0 0.0 0.00 0.00 0.00 51 986.9
20260510013532 21 6 0.0 0.0 0.00 0.00 0.00 51 986.7
20260510013028 21 6 0.0 0.0 0.00 0.00 0.00 51 986.5
20260510012528 22 6 0.0 0.0 0.00 0.00 0.00 51 986.6
20260510012025 22 6 0.0 0.0 0.00 0.00 0.00 50 986.6
20260510011524 22 5 0.0 0.0 0.00 0.00 0.00 48 986.5
20260510011020 22 6 0.0 0.0 0.00 0.00 0.00 47 986.7
20260510010517 22 6 0.0 0.0 0.00 0.00 0.00 46 986.2
20260510010014 23 6 0.0 0.0 0.00 0.00 0.00 46 986.5
20260510005510 23 6 0.0 0.0 0.00 0.00 0.00 43 986.4
20260510005008 23 6 0.0 0.0 0.00 0.00 0.00 43 986.6
20260510004505 24 6 0.0 0.0 0.00 0.00 0.00 42 986.5
20260510004003 25 6 0.0 0.0 0.00 0.00 0.00 39 986.4
20260510003459 25 324 0.0 0.0 0.00 0.00 0.00 39 986.4
20260510002954 25 324 0.0 0.0 0.00 0.00 0.00 38 986.2
20260510002451 25 324 0.0 0.0 0.00 0.00 0.00 38 986.3
20260510001947 26 324 0.0 1.6 0.00 0.00 0.00 42 986.1
20260510001445 26 323 0.0 0.0 0.00 0.00 0.00 39 986.3
20260510000942 26 323 0.0 1.6 0.00 0.00 0.00 39 986.1
20260510000440 26 322 0.0 0.0 0.00 0.00 0.00 39 986.2
20260509235935 27 322 0.0 0.0 0.00 0.00 0.00 36 986.0
20260509235432 27 322 0.0 1.6 0.00 0.00 0.00 34 986.4
20260509234928 27 75 0.0 1.6 0.00 0.00 0.00 34 986.1
20260509234425 28 128 1.6 3.2 0.00 0.00 0.00 36 986.1
20260509233923 28 241 1.6 1.6 0.00 0.00 0.00 32 986.0
20260509233420 28 120 1.6 1.6 0.00 0.00 0.00 34 986.2
20260509232916 28 1 0.0 3.2 0.00 0.00 0.00 34 986.1
20260509232414 28 5 3.2 4.8 0.00 0.00 0.00 32 986.0
20260509231909 27 95 1.6 3.2 0.00 0.00 0.00 32 986.2
20260509231406 27 21 4.8 6.4 0.00 0.00 0.00 30 986.1
20260509230905 28 19 4.8 9.7 0.00 0.00 0.00 31 986.1
20260509230401 28 340 1.6 3.2 0.00 0.00 0.00 31 986.1
20260509225857 28 24 1.6 6.4 0.00 0.00 0.00 31 986.1
20260509225354 28 325 3.2 4.8 0.00 0.00 0.00 29 986.0
20260509224849 28 165 1.6 3.2 0.00 0.00 0.00 30 986.1
20260509224345 28 126 6.4 6.4 0.00 0.00 0.00 30 986.3
20260509223843 28 262 4.8 4.8 0.00 0.00 0.00 30 986.0
20260509223339 28 135 1.6 6.4 0.00 0.00 0.00 30 986.3
20260509222837 28 144 3.2 4.8 0.00 0.00 0.00 31 986.2
20260509222332 28 42 4.8 4.8 0.00 0.00 0.00 33 985.9
20260509221827 28 126 1.6 4.8 0.00 0.00 0.00 29 986.1
20260509221325 28 105 1.6 4.8 0.00 0.00 0.00 33 986.1
20260509220825 28 104 3.2 4.8 0.00 0.00 0.00 29 986.2
20260509220321 28 66 1.6 6.4 0.00 0.00 0.00 30 986.3
20260509215817 28 133 1.6 9.7 0.00 0.00 0.00 32 986.1
20260509215314 28 142 3.2 4.8 0.00 0.00 0.00 31 986.1
20260509214811 28 16 6.4 6.4 0.00 0.00 0.00 31 986.1
20260509214308 28 118 1.6 4.8 0.00 0.00 0.00 34 986.2